Retour au catalogue

STARLINK-35305

ActifCommunicationsVLEO
NORAD 66561·PAYLOAD·🇺🇸 United States

Lancé Nov 21, 2025 depuis Cape Canaveral Space Force Station

Loading…

Prochains Passages (prochaines 24 heures)

TLE

FraisSource: CelesTrak SupGP

Époque: Sep 14, 2026, 22:40 UTC

1 66561C 25268E   26257.94493056 -.00012884  00000+0 -46691-3 0  2579
2 66561  43.0039 358.2010 0001444 275.8871 113.7764 15.27567724    11

Suivez STARLINK-35305 en temps réel avec AllMySat

Download on the App Store